Location: Bodest
(46.3000°N, 22.5667°E)
Time: 20:58:56
(UTC+00:00)

Cosmos 2227 Rocket - Pass Details

Date: 16 October 2021
Orbit: 839 x 845 km, 71.0° (Epoch: 29 November)

Event Time Altitude Azimuth Distance (km) Brightness Sun altitude
Rises 15:59:54 0° 333° (NNW) 3,415 5.6 -4.0°
Reaches altitude 10° 16:02:21 10° 335° (NNW) 2,476 4.9 -4.4°
Maximum altitude 16:08:04 82° 63° (ENE) 857 2.2 -5.4°
Drops below altitude 10° 16:13:43 10° 152° (SSE) 2,457 4.4 -6.3°
Sets 16:16:09 0° 153° (SSE) 3,387 5.1 -6.8°
